Weather History for MMLO - July, 2013

Change the Weather History Date:

Thursday, July 25, 2013

  Actual Average Record
Temperature  
Mean Temperature 72 °F -  
Max Temperature 84 °F 79 °F 86 °F (2011)
Min Temperature 60 °F 58 °F 53 °F (2002)
Cooling Degree Days 7    
Growing Degree Days 22 (Base 50)    
Moisture  
Dew Point 57 °F    
Average Humidity 68    
Maximum Humidity 88    
Minimum Humidity 37    
Precipitation  
Precipitation 0.00 in - - ()
Sea Level Pressure  
Sea Level Pressure 30.16 in    
Wind  
Wind Speed 3 mph ()    
Max Wind Speed 13 mph    
Max Gust Speed -    
Visibility 8.9 miles    
Events Rain    
Averages and records for this station are not official NWS values.
T = Trace of Precipitation, MM = Missing Value Source: Averaged Metar Reports

Daily Weather History Graph

Daily Weather History Graph

Search for Another Location

Airport or City:

Trip Planner

Search our weather history database for the weather conditions in past years. The results will help you decide how hot, cold, wet, or windy it might be!

Date:

Astronomy

Jul. 25, 2013 Rise Set
Actual Time 7:17 AM CDT 8:27 PM CDT
Civil Twilight 6:53 AM CDT 8:51 PM CDT
Nautical Twilight 6:24 AM CDT 9:19 PM CDT
Astronomical Twilight 5:55 AM CDT 9:48 PM CDT
Moon 10:47 PM CDT (7/25) 10:15 AM CDT (7/25)
Length of Visible Light 13h 57m
Length of Day
13h 10m
Waning Gibbous, 88% of the Moon is Illuminated
Jul 25
Waning Gibbous
Jul 29
Last Quarter
Aug 6
New
Aug 14
First Quarter
Aug 20
Full

Hourly Weather History & Observations

Time (CDT) Temp. Heat Index Dew Point Humidity Pressure Visibility Wind Dir Wind Speed Gust Speed Precip Events Conditions
12:50 AM 60.8 °F - 57.2 °F 88% 29.88 in 8.0 mi Calm Calm - N/A   Overcast
1:44 AM 60.8 °F - 57.2 °F 88% 30.31 in 8.0 mi Calm Calm - N/A   Overcast
3:48 AM 60.8 °F - 57.2 °F 88% 29.84 in 8.0 mi SE 5.8 mph - N/A   Mostly Cloudy
4:47 AM 60.8 °F - 57.2 °F 88% 30.27 in 8.0 mi SSE 5.8 mph - N/A   Mostly Cloudy
6:50 AM 62.6 °F - 57.2 °F 82% 29.84 in 8.0 mi Calm Calm - N/A   Overcast
7:50 AM 62.6 °F - 59.0 °F 88% 30.30 in 7.0 mi Calm Calm - N/A   Overcast
8:50 AM 64.4 °F - 57.2 °F 77% 30.32 in 9.0 mi Calm Calm - N/A   Mostly Cloudy
9:46 AM 69.8 °F - 55.4 °F 60% 29.93 in 10.0 mi SE 3.5 mph - N/A   Mostly Cloudy
10:42 AM 73.4 °F - 55.4 °F 53% 30.32 in 10.0 mi SSE 4.6 mph - N/A   Overcast
11:52 AM 78.8 °F - 55.4 °F 44% 30.32 in 10.0 mi ENE 4.6 mph - N/A   Mostly Cloudy
12:43 PM 78.8 °F - 53.6 °F 42% 29.90 in 10.0 mi East 3.5 mph - N/A   Overcast
1:47 PM 78.8 °F - 55.4 °F 44% 30.29 in 10.0 mi South 3.5 mph - N/A   Overcast
2:50 PM 82.4 °F 81.7 °F 55.4 °F 39% 30.27 in 10.0 mi South 4.6 mph - N/A   Overcast
4:40 PM 84.2 °F 83.0 °F 55.4 °F 37% 30.24 in 10.0 mi SSW 4.6 mph - N/A   Overcast
5:50 PM 78.8 °F - 57.2 °F 47% 30.24 in 10.0 mi NW 9.2 mph - N/A   Overcast
6:48 PM 75.2 °F - 57.2 °F 53% 29.81 in 10.0 mi NW 8.1 mph - N/A   Overcast
7:52 PM 66.2 °F - 60.8 °F 83% 30.27 in 8.0 mi North 12.7 mph - N/A Rain Rain
8:42 PM 66.2 °F - 60.8 °F 83% 30.27 in 8.0 mi Calm Calm - N/A   Overcast
9:43 PM 64.4 °F - 57.2 °F 77% 29.99 in 8.0 mi SSW 4.6 mph - N/A   Overcast
10:47 PM 62.6 °F - 59.0 °F 88% 30.36 in 8.0 mi North 4.6 mph - N/A   Overcast
11:42 PM 62.6 °F - 59.0 °F 88% 30.36 in 8.0 mi Calm Calm - N/A   Overcast